Location: Kampernieuwstad
(52.5135°N, 5.8742°E)
Time: 04:37:22
(UTC+00:00)

Cosmos 1655 Rocket - Pass Details

Date: 15 May 2026
Orbit: 969 x 1006 km, 83.0° (Epoch: 6 June)

Event Time Altitude Azimuth Distance (km) Brightness Sun altitude
Rises 23:11:52 0° 350° (N) 3,678 8.7 -18.3°
Reaches altitude 10° 23:14:25 10° 354° (N) 2,729 7.6 -18.3°
Maximum altitude 23:20:37 63° 76° (ENE) 1,084 4.2 -18.4°
Enters shadow 23:24:15 26° 150° (SSE) 1,831 4.9 -18.4°
